Flag for Romania Weather past 2 weeks in Iasi, Romania

Now
73 °F

Sunny.


Feels Like: 77 °F
Forecast: 60 / 83 °F
Wind: 7 mph from North

Location: Iasi Airport

Current Time: Aug 1, 2015 at 12:57:32 PM

Latest Report: Aug 1, 2015 at 12:30 PM


Visibility: 10 mi

Pressure: 30.12 "Hg

Humidity: 50%

Dew point: 54 °F

Location of IasiLocation

Historic Weather in Iasi — Graph

°F

Iasi temperature yesterday

Maximum temperature yesterday: 70 °F (at 11:00 AM)
Minimum temperature yesterday: 63 °F (at 10:00 PM)
Average temperature yesterday: 67 °F

Past Weeks' High & Low Weather Summary

 TemperatureHumidityPressure
High95 °F (Jul 23, 3:30 PM)100% (Jul 30, 8:30 PM)30.15 "Hg (Jul 30, 8:30 PM)
Low59 °F (Aug 1, 5:30 AM)24% (Jul 17, 5:30 PM)29.65 "Hg (Jul 26, 4:00 PM)
Average79 °F56%29.90 "Hg
* Reported Jul 17 11:00 AM — Aug 1 11:30 AM, Iasi, Weather by CustomWeather, © 2015

Note: Actual official high and low records may vary slightly from our data, if they occured in-between our weather recording intervals... More about our weather records

Advertising

Iasi weather history for previous 24 hours

 ConditionsComfort  
Time TempWeatherWind HumidityBarometerVisibility
11:30 AM
Sat, Aug 1
70 °FPassing clouds.8 mph64%30.15 "HgN/A
11:00 AM70 °FSunny.12 mph60%30.15 "Hg10 mi
10:30 AM68 °FPassing clouds.8 mph69%30.15 "HgN/A
9:30 AM66 °FPassing clouds.7 mph73%30.15 "HgN/A
9:00 AM64 °FPassing clouds.7 mph83%30.15 "HgN/A
8:30 AM63 °FSunny.9 mph83%30.12 "Hg10 mi
7:30 AM59 °FSunny.10 mph100%30.12 "Hg10 mi
7:00 AM59 °FSunny.9 mph94%30.09 "Hg10 mi
6:30 AM59 °FClear.8 mph94%30.09 "Hg10 mi
6:00 AM59 °FClear.8 mph94%30.09 "Hg10 mi
5:30 AM59 °FClear.9 mph100%30.07 "Hg10 mi
5:00 AM61 °FClear.9 mph94%30.07 "Hg10 mi
4:00 AM61 °FOvercast.9 mph94%30.07 "HgN/A
3:00 AM61 °FOvercast.10 mph94%30.07 "HgN/A
2:00 AM61 °FPassing clouds.10 mph94%30.04 "HgN/A
1:00 AM63 °FOvercast.9 mph88%30.04 "HgN/A
12:00 AM63 °FPartly cloudy.8 mph88%30.04 "HgN/A
11:00 PM
Fri, Jul 31
63 °FOvercast.10 mph94%30.01 "HgN/A
10:00 PM63 °FPartly cloudy.15 mph94%29.98 "HgN/A
9:00 PM64 °FPartly sunny.9 mph94%29.95 "HgN/A
8:30 PM64 °FBroken clouds.12 mph94%29.95 "HgN/A
8:00 PM66 °FPartly sunny.9 mph88%29.95 "HgN/A
7:30 PM66 °FPassing clouds.9 mph94%29.95 "HgN/A
7:00 PM66 °FScattered clouds.9 mph88%29.92 "HgN/A
6:30 PM68 °FOvercast.6 mph88%29.92 "HgN/A
6:00 PM68 °FPartly sunny.6 mph83%29.92 "HgN/A
5:30 PM68 °FPartly sunny.7 mph83%29.92 "HgN/A
5:00 PM66 °FOvercast.7 mph88%29.92 "HgN/A
4:00 PM66 °FMore clouds than sun.6 mph88%29.95 "HgN/A
3:30 PM66 °FLight rain. Overcast.7 mph88%29.95 "HgN/A
3:00 PM68 °FLight rain. Overcast.9 mph83%29.95 "HgN/A
2:30 PM68 °FOvercast.10 mph83%29.95 "HgN/A
2:00 PM68 °FMore clouds than sun.12 mph83%29.95 "HgN/A
1:30 PM68 °FOvercast.12 mph88%29.95 "HgN/A
1:00 PM68 °FOvercast.7 mph94%29.95 "HgN/A
12:30 PM68 °FLight rain. Partly sunny.8 mph94%29.95 "HgN/A
12:00 PM68 °FLight rain. Partly sunny.7 mph94%29.95 "HgN/A
Weather by CustomWeather, © 2015

See weather overviewHow to use our weather pages